Find Starlink 35964

NORAD ID: 66796 Int'l Des: 2025-278 Owner: SPXS Country: US Constellation: starlink operational
LEOCIRCULAR

当前视图

正在加载3D地球...

关于 Starlink 35964

正在加载描述...

即将过境

Passes for default location (London). Set your location on the main map for personalized predictions.

高度历史

Loading altitude history...

两行轨道根数

1 66796U 25278F 26146.34413019 .00033314 00000-0 12138-2 0 9993
2 66796 43.0007 20.9181 0002854 280.0000 80.0529 15.27601787 27254
Epoch: May 26, 2026 • Age: 12 hours

当前状态

高度 493.7 km
速度 7.62 km/s
星下点 -41.85°S, 113.71°E
发射日期 Dec 1, 2025
运行时间 0.4 years
类型 internet

技术详情

分类 Payload
质量 575.00 kg
干质量 530.00 kg
总质量 575.00 kg
长度 0.30 m
直径 4.10 m
跨度 29.00 m
形状 Box + pan
制造商 SPXS
平台类型 Starlink V2MO
阶段状态 In Orbit
所有者/国家 SPXS/US

Most Searched